When you browse on this site, cookies collect data to enhance your experience and personalize the content and advertising you see.
Visit our Privacy Policy to learn more. By continuing to use the site, you agree to this use of cookies and data.
  • In Romania
  • List of Countries
  • For 7 days
  • Water Temperature
  • Satellite Maps
  • Weather Map
  • Weather Widgets
  • user-avatar
    Login

    Hourly Weather Tinheyri

    Today, 24 March, Sunday

    Time Temperature Precipitation Wind Pressure Humidity
    00:00 -2°C° 0.1 mm 3 mps 722 mmHg 91%
    01:00 -2°C° 0.1 mm 3 mps 723 mmHg 91%
    02:00 -3°C° 0.1 mm 4 mps 724 mmHg 92%
    03:00 -3°C° 0.1 mm 4 mps 725 mmHg 93%
    04:00 -4°C° 0.1 mm 5 mps 727 mmHg 94%
    05:00 -4°C° 0.2 mm 5 mps 728 mmHg 93%
    06:00 -5°C° 0.2 mm 6 mps 730 mmHg 93%
    07:00 -5°C° 0.2 mm 6 mps 731 mmHg 93%
    08:00 -5°C° 0.1 mm 6 mps 732 mmHg 92%
    09:00 -5°C° 0.1 mm 5 mps 733 mmHg 91%
    10:00 -5°C° 0.1 mm 5 mps 735 mmHg 90%
    11:00 -4°C° 0 mm 4 mps 736 mmHg 89%
    12:00 -4°C° 0 mm 4 mps 737 mmHg 87%
    13:00 -5°C° 0 mm 3 mps 737 mmHg 86%
    14:00 -5°C° 0 mm 3 mps 738 mmHg 86%
    15:00 -4°C° 0 mm 2 mps 738 mmHg 86%
    16:00 -2°C° 0 mm 1 mps 739 mmHg 86%
    17:00 -3°C° 0 mm 1 mps 739 mmHg 87%
    18:00 -3°C° 0 mm 1 mps 739 mmHg 88%
    19:00 -3°C° 0 mm 1 mps 739 mmHg 88%
    20:00 -5°C° 0 mm 2 mps 739 mmHg 88%
    21:00 -6°C° 0 mm 2 mps 738 mmHg 88%
    22:00 -7°C° 0 mm 3 mps 738 mmHg 88%
    23:00 -6°C° 0.1 mm 3 mps 737 mmHg 89%

    Tomorrow, 25 March, Monday

    Time Temperature Precipitation Wind Pressure Humidity
    00:00 -6°C° 0.1 mm 3 mps 736 mmHg 90%
    01:00 -6°C° 0.1 mm 3 mps 735 mmHg 92%
    02:00 -5°C° 0.4 mm 4 mps 734 mmHg 92%
    03:00 -5°C° 0.4 mm 4 mps 733 mmHg 92%
    04:00 -5°C° 0.4 mm 4 mps 732 mmHg 93%
    05:00 -4°C° 0.7 mm 4 mps 730 mmHg 93%
    06:00 -5°C° 0.7 mm 5 mps 729 mmHg 94%
    07:00 -4°C° 0.7 mm 5 mps 728 mmHg 94%
    08:00 -2°C° 0.7 mm 5 mps 727 mmHg 95%
    09:00 -2°C° 0.7 mm 6 mps 726 mmHg 96%
    10:00 -1°C° 0.7 mm 6 mps 725 mmHg 97%
    11:00 0°C° 0.6 mm 5 mps 724 mmHg 98%
    12:00 +1°C° 0.6 mm 5 mps 724 mmHg 98%
    13:00 +1°C° 0.6 mm 5 mps 723 mmHg 99%
    14:00 +1°C° 0.6 mm 4 mps 723 mmHg 99%
    15:00 +1°C° 0.6 mm 4 mps 722 mmHg 99%
    16:00 +2°C° 0.6 mm 3 mps 721 mmHg 99%
    17:00 +2°C° 0.3 mm 3 mps 721 mmHg 99%
    18:00 +2°C° 0.3 mm 3 mps 721 mmHg 99%
    19:00 +2°C° 0.3 mm 2 mps 721 mmHg 99%
    20:00 +2°C° 0 mm 2 mps 722 mmHg 98%
    21:00 +1°C° 0 mm 3 mps 723 mmHg 97%
    22:00 0°C° 0 mm 3 mps 724 mmHg 96%
    23:00 -1°C° 0 mm 4 mps 724 mmHg 96%

    Day after tomorrow, 26 March, Tuesday

    Time Temperature Precipitation Wind Pressure Humidity
    00:00 -1°C° 0 mm 4 mps 725 mmHg 96%
    01:00 -1°C° 0 mm 5 mps 726 mmHg 95%
    02:00 -2°C° 0.3 mm 7 mps 726 mmHg 94%
    03:00 -2°C° 0.3 mm 10 mps 727 mmHg 92%
    04:00 -2°C° 0.3 mm 12 mps 727 mmHg 90%
    05:00 -3°C° 0 mm 12 mps 728 mmHg 87%
    06:00 -5°C° 0 mm 12 mps 729 mmHg 83%
    07:00 -6°C° 0 mm 12 mps 729 mmHg 80%
    08:00 -6°C° 0 mm 12 mps 730 mmHg 80%
    09:00 -6°C° 0 mm 13 mps 730 mmHg 80%
    10:00 -6°C° 0 mm 13 mps 731 mmHg 80%
    11:00 -6°C° 0.1 mm 13 mps 731 mmHg 80%
    12:00 -6°C° 0.1 mm 13 mps 731 mmHg 81%
    13:00 -6°C° 0.1 mm 13 mps 731 mmHg 81%
    14:00 -6°C° 0 mm 13 mps 731 mmHg 81%
    15:00 -6°C° 0 mm 12 mps 730 mmHg 81%
    16:00 -6°C° 0 mm 12 mps 730 mmHg 82%
    17:00 -6°C° 0.1 mm 11 mps 730 mmHg 83%
    18:00 -6°C° 0.1 mm 11 mps 730 mmHg 85%
    19:00 -5°C° 0.1 mm 10 mps 730 mmHg 86%
    20:00 -5°C° 0.1 mm 10 mps 729 mmHg 87%
    21:00 -4°C° 0.1 mm 9 mps 728 mmHg 87%
    22:00 -4°C° 0.1 mm 9 mps 728 mmHg 88%
    23:00 -4°C° 0.3 mm 9 mps 727 mmHg 89%

    27 March, Wednesday

    Time Temperature Precipitation Wind Pressure Humidity
    00:00 -3°C° 0.3 mm 9 mps 726 mmHg 89%
    01:00 -3°C° 0.3 mm 10 mps 725 mmHg 90%
    02:00 -3°C° 0.6 mm 10 mps 724 mmHg 91%
    03:00 -2°C° 0.6 mm 10 mps 724 mmHg 91%
    04:00 -2°C° 0.6 mm 10 mps 723 mmHg 92%
    05:00 -2°C° 1.6 mm 10 mps 722 mmHg 92%
    06:00 -2°C° 1.6 mm 10 mps 721 mmHg 93%
    07:00 -2°C° 1.6 mm 10 mps 721 mmHg 93%
    08:00 -2°C° 3.6 mm 10 mps 719 mmHg 95%
    09:00 -3°C° 3.6 mm 10 mps 718 mmHg 96%
    10:00 -3°C° 3.6 mm 11 mps 717 mmHg 98%
    11:00 -5°C° 0.9 mm 12 mps 719 mmHg 89%
    12:00 -7°C° 0.9 mm 13 mps 720 mmHg 79%
    13:00 -9°C° 0.9 mm 14 mps 721 mmHg 70%
    14:00 -9°C° 0.2 mm 13 mps 722 mmHg 70%
    15:00 -9°C° 0.2 mm 13 mps 723 mmHg 70%
    16:00 -9°C° 0.2 mm 13 mps 724 mmHg 70%
    17:00 -9°C° 0.4 mm 13 mps 723 mmHg 77%
    18:00 -9°C° 0.4 mm 13 mps 723 mmHg 83%
    19:00 -9°C° 0.4 mm 14 mps 722 mmHg 90%
    20:00 -9°C° 0.5 mm 14 mps 722 mmHg 87%
    21:00 -9°C° 0.5 mm 15 mps 723 mmHg 83%
    22:00 -9°C° 0.5 mm 15 mps 723 mmHg 80%
    23:00 -10°C° 0.3 mm 15 mps 723 mmHg 80%

    28 March, Thursday

    Time Temperature Precipitation Wind Pressure Humidity
    00:00 -10°C° 0.3 mm 15 mps 723 mmHg 80%
    01:00 -10°C° 0.3 mm 15 mps 723 mmHg 79%
    02:00 -10°C° 0.3 mm 15 mps 723 mmHg 79%
    03:00 -10°C° 0.3 mm 15 mps 722 mmHg 79%
    04:00 -10°C° 0.3 mm 15 mps 722 mmHg 79%
    05:00 -10°C° 0.3 mm 15 mps 721 mmHg 79%
    06:00 -10°C° 0.3 mm 15 mps 721 mmHg 79%
    07:00 -10°C° 0.3 mm 15 mps 721 mmHg 78%
    08:00 -10°C° 0.3 mm 14 mps 720 mmHg 78%
    09:00 -10°C° 0.3 mm 13 mps 719 mmHg 77%
    10:00 -9°C° 0.3 mm 13 mps 719 mmHg 77%
    11:00 -8°C° 0.2 mm 11 mps 718 mmHg 77%
    12:00 -8°C° 0.2 mm 10 mps 717 mmHg 77%
    13:00 -8°C° 0.2 mm 9 mps 716 mmHg 78%
    14:00 -8°C° 0.3 mm 8 mps 716 mmHg 79%
    15:00 -8°C° 0.3 mm 7 mps 715 mmHg 80%
    16:00 -8°C° 0.3 mm 6 mps 714 mmHg 81%
    17:00 -9°C° 0.3 mm 6 mps 714 mmHg 80%
    18:00 -9°C° 0.3 mm 6 mps 714 mmHg 79%
    19:00 -9°C° 0.3 mm 6 mps 714 mmHg 78%
    20:00 -9°C° 0.2 mm 7 mps 714 mmHg 75%
    21:00 -9°C° 0.2 mm 7 mps 714 mmHg 73%
    22:00 -9°C° 0.2 mm 7 mps 715 mmHg 70%
    23:00 -9°C° 0.4 mm 6 mps 715 mmHg 77%

    29 March, Friday

    Time Temperature Precipitation Wind Pressure Humidity
    00:00 -8°C° 0.4 mm 5 mps 715 mmHg 84%
    01:00 -9°C° 0.4 mm 4 mps 715 mmHg 90%
    02:00 -8°C° 0.7 mm 3 mps 715 mmHg 91%
    03:00 -8°C° 0.7 mm 3 mps 716 mmHg 92%
    04:00 -7°C° 0.7 mm 2 mps 716 mmHg 92%
    05:00 -7°C° 0.5 mm 2 mps 716 mmHg 92%
    06:00 -7°C° 0.5 mm 2 mps 717 mmHg 91%
    07:00 -7°C° 0.5 mm 2 mps 717 mmHg 91%
    08:00 -6°C° 0.4 mm 2 mps 718 mmHg 89%
    09:00 -7°C° 0.4 mm 3 mps 718 mmHg 88%
    10:00 -7°C° 0.4 mm 3 mps 718 mmHg 86%
    11:00 -8°C° 0.3 mm 4 mps 719 mmHg 86%
    12:00 -8°C° 0.3 mm 4 mps 719 mmHg 85%
    13:00 -8°C° 0.3 mm 5 mps 720 mmHg 85%
    14:00 -9°C° 0.5 mm 6 mps 720 mmHg 86%
    15:00 -11°C° 0.5 mm 7 mps 721 mmHg 88%
    16:00 -12°C° 0.5 mm 9 mps 722 mmHg 89%
    17:00 -12°C° 0.1 mm 8 mps 724 mmHg 87%
    18:00 -13°C° 0.1 mm 7 mps 725 mmHg 85%
    19:00 -12°C° 0.1 mm 6 mps 726 mmHg 84%
    20:00 -13°C° 0 mm 5 mps 727 mmHg 83%
    21:00 -12°C° 0 mm 4 mps 729 mmHg 82%
    22:00 -13°C° 0 mm 3 mps 730 mmHg 81%
    23:00 -12°C° 0 mm 2 mps 731 mmHg 81%
    Show more